Lid_Strength_Index
3 2 2 2 3 3 6 9 12 7 7 12 15 16 12 8 10 10 11 11 12 14 14 15 15 15 14 11 11 14 14 16 19 16 14 12 14 15 16 19 20 19 20 19
3 3 3 3 3 4 9 11 11 7 8 15 16 12 11 11 11 11 10 11 11 11 13 15 14 13 10 10 11 13 13 16 21 18 15 14 15 14 15 16 17 20 22 19
5 3 3 3 3 3 8 12 14 11 11 12 14 14 13 12 10 11 11 12 11 13 14 13 14 13 10 10 10 8 10 15 17 20 18 15 16 15 15 16 21 19 19 18
5 5 4 3 2 2 9 13 14 14 16 13 14 13 12 13 13 11 11 12 12 13 16 15 15 13 13 10 9 12 13 17 18 16 15 15 15 15 15 16 16 18 19 18
4 5 5 5 3 4 11 13 13 14 15 14 15 14 15 14 13 12 13 14 13 13 15 15 15 13 14 14 13 14 13 17 17 20 16 16 17 16 16 15 15 15 15 15
4 4 4 5 6 6 11 12 12 13 14 15 16 15 14 13 13 12 12 12 14 15 13 13 14 13 13 14 13 14 15 17 19 21 19 18 20 18 17 16 16 14 16 13
4 4 4 5 5 9 11 12 12 13 16 15 15 14 13 13 13 14 13 13 14 13 11 12 13 14 14 15 15 14 17 18 19 22 20 25 19 17 16 16 15 14 14 13
4 4 4 4 5 7 12 13 12 13 17 16 15 14 14 14 14 15 14 13 13 12 14 17 18 18 18 17 16 16 16 17 21 23 23 20 19 17 17 17 18 15 14 14
5 5 5 5 5 6 12 13 14 14 16 17 14 14 15 16 18 16 14 12 12 13 16 17 21 22 20 20 19 16 16 16 19 21 22 23 21 17 15 16 20 18 15 15
5 5 5 5 5 6 11 12 13 13 17 16 15 15 15 14 16 17 16 15 14 14 17 18 20 21 19 20 20 19 18 19 20 20 21 19 16 15 15 20 19 16 15 15
5 5 5 5 5 5 9 11 12 14 16 16 14 14 15 15 16 17 16 15 15 16 17 18 19 19 19 21 20 19 19 20 20 19 21 22 15 16 18 16 16 15 15 15
4 5 5 5 5 5 8 12 10 12 14 15 13 13 13 14 14 16 16 17 17 15 18 18 18 18 20 20 20 20 20 17 19 18 18 15 15 16 15 15 15 15 15 14
4 4 5 6 6 5 8 11 11 12 14 15 15 15 14 12 13 13 15 16 15 15 15 17 18 19 18 20 20 21 19 17 18 18 17 16 15 15 14 15 15 14 14 15
4 4 5 6 6 6 7 11 11 12 13 15 15 13 14 14 13 13 13 13 13 14 15 16 17 18 17 19 19 19 17 17 18 18 16 15 16 16 15 14 13 14 14 14
4 4 4 5 6 7 10 11 12 11 13 16 15 14 14 14 13 13 12 13 14 15 15 17 16 16 17 17 18 18 17 17 18 18 16 16 15 14 14 15 14 14 14 14
5 5 5 5 6 8 11 13 12 12 12 16 17 15 15 14 13 14 14 14 14 15 15 15 16 15 16 19 19 15 16 15 15 16 15 14 14 14 15 15 15 14 15 14
6 5 5 5 7 11 12 13 12 10 12 15 17 18 15 15 16 15 15 15 16 15 16 16 16 15 15 17 18 15 15 15 14 15 16 17 16 15 14 15 14 13 14 14
6 6 5 6 7 9 12 12 10 11 13 15 21 19 17 16 17 17 16 16 16 16 17 16 16 16 16 18 15 14 14 14 15 15 14 14 14 14 15 15 14 15 14 14
6 6 6 8 10 12 12 9 11 13 14 17 16 19 21 15 17 17 16 17 18 17 17 17 16 17 18 15 14 14 14 15 15 15 15 15 16 15 16 16 15 16 15 15
6 8 10 13 12 9 10 14 15 16 16 17 16 15 17 17 17 17 17 17 18 23 18 16 17 17 15 13 13 13 13 14 15 16 16 16 16 16 15 15 15 15 15 15
9 11 14 13 10 13 15 17 16 16 16 15 15 15 18 16 18 17 16 19 17 18 20 17 19 18 15 14 14 14 15 17 16 16 16 15 16 16 15 14 14 14 14 14
9 10 12 13 14 14 17 19 16 15 17 16 17 16 16 16 16 16 16 19 17 20 18 17 20 18 15 15 16 16 16 17 17 16 16 15 15 15 15 14 14 13 13 13
10 12 13 15 15 17 19 23 18 17 15 18 17 18 16 16 16 17 18 19 19 19 19 20 19 17 16 16 15 16 16 16 16 15 14 14 14 13 14 14 13 13 13 12
12 15 16 17 19 19 19 19 18 17 18 19 18 19 18 17 17 17 19 18 18 20 21 22 19 17 16 16 15 15 15 14 15 14 14 14 14 13 12 12 12 12 12 11
13 13 18 20 17 19 16 17 16 17 16 16 17 17 17 18 18 16 17 18 19 19 20 19 19 16 15 15 15 14 14 14 14 13 13 13 12 12 11 11 12 11 11 12
13 14 17 16 17 18 17 16 16 16 15 16 15 19 21 19 17 17 17 18 20 18 17 17 17 15 15 15 14 14 13 14 13 13 12 11 11 11 10 10 11 11 11 11
15 15 14 15 14 15 16 15 15 13 13 15 17 20 19 18 18 19 18 19 16 15 16 16 15 15 15 14 13 12 12 12 11 11 11 11 9 11 13 12 10 10 10 11